Погода в Жуковке

Погода в Жуковке : погода сейчас, прогноз погоды и архив. Всё, что Вы хотите узнать о погоде в Жуковке!

Хотите узнать прогноз погоды в Жуковке? Тогда Вам сюда: Погода в Жуковке

Поиск расширенной информации на нашем сайте:

Другие новости

Новости СМИ2

Главная страница сайта

Новости сайта

03.07.2017

Напоминаем, что на нашем специализированном сайте Метеоцентр.Азия вы можете получить высокодетализированные автоматические прогнозы погоды по пунктам России, СНГ и мира в авиационном формате (включающие направление и скорость ветра, видимость, явления погоды, количество и форму облачности, нижнюю и верхнюю границу облачности).


Погода в Жуковке - сегодня

Время (UTC), дата Ветер
(°,м/с) 
Видим.   Явления Облачность Т
(°С)
Тd
(°С)
f(%) Тe
(°С)
Pmin
(гПа)
dP
(гПа)
Po
(мм)
O2
(г/м3)
Тmin Tmax R s Состояние
почвы
21 12.07.18 010 (С) 8000 м  дымка  6/0 средняя 
[Ac trans]
+18.3 +17 92 +33  1013  0.1  744  277           
09 13.07.18 160 (Ю) 15000 м    8/6 600 м кучево-дожд., верхняя 
[Cb cap|Ci fib]
+25.9 +16.2 55 +37  1010.4  -0.9  743  270           
12 13.07.18 130 (ЮВ) 20000 м    4/3 1000 м средняя 
[Cu med, cong|Ac trans]
+27.1 +15.9 50 +38  1009.2  -1.2  742  269           
21 13.07.18 тихо ()   9000 м  дымка  6/3 600 м кучево-дожд., средняя 
[Cb cap|Ac trans]
+17.8 +16.1 90 +29  1009.5  -0.3  742  277           
09 14.07.18 160 (Ю) 15000 м    8/5 1000 м средняя 
[Cu med, cong|Ac trans]
+24.8 +16.2 59 +36  1006.9  -0.4  740  270           
21 14.07.18 020 (С) 11000 м  {гроза}  8/4 600 м кучево-дожд., средняя 
[Cb cap|Ac trans]
+17.8 +15.6 87 +29  1007  0.5  740  277           
09 15.07.18 070 (В) 9000 м  слаб. ливневой дождь, в посл. час гроза  10/6 600 м кучево-дожд., средняя 
[Cb cap|Ac und]
+19.5 +17.2 87 +34  1008  1.3  741  275           
09 16.07.18 040 (СВ) 8000 м  в посл. час ливневой дождь  10/4 300 м кучево-дожд., средняя 
[Cb cap|Ac und]
+20.4 +18.6 89 +36  1005.8  -0.4  739  273           
15 16.07.18 080 (В) 14000 м    9/3 600 м кучево-дожд., средняя 
[Cb cap|Ac trans]
+24.7 +18.2 67 +40  1004.9  -0.4  739  269      0.4     
18 16.07.18 040 (СВ) 2{13}  7000 м  гроза, ливневой дождь  10/10 420 м кучево-дожд. 
[Cb cap]
+18.1 +16.8 92 +31  1005.6  0.2  739  275    +25.1     
21 16.07.18 360 (С) 6000 м  дымка{гроза, ливн. осадки}  9/4 600 м кучево-дожд., средняя 
[Cb cap|Ac trans]
+17.9 +16.9 94 +32  1004.9  -0.7  738  275           
09 17.07.18 050 (СВ) 14000 м    6/3 1000 м верхняя 
[Cu hum|Ci fib]
+26.8 +20.3 68 +47  1001.9  -1.1  737  265           
21 17.07.18 010 (С) 7000 м  дымка  8/0 средняя 
[Ac trans]
+19.2 +17.9 92 +35  1002.1  -0.3  736  273           
09 18.07.18 020 (С) 15000 м    8/4 1000 м верхняя 
[Cu med, cong|Ci fib]
+24.3 +17.9 67 +39  1001.7  736  268           
21 18.07.18 010 (С) 9000 м  дымка  3/0 средняя 
[Ac trans]
+17.7 +16.2 91 +30  1001.4  -0.1  736  275           
09 19.07.18 030 (СВ) 12000 м  {ливн. осадки}  8/4 300 м кучево-дожд., средняя 
[Cb cap|Ac trans]
+21 +17.8 82 +36  1000.6  735  271           
21 19.07.18 020 (С) 8000 м  дымка  6/0 средняя 
[Ac trans]
+19.1 +17.6 91 +35  1001.6  0.3  736  273           
09 20.07.18 120 (ЮВ) 14000 м    8/5 600 м кучево-дожд., средняя 
[Cb cap|Ac trans]
+23.7 +17.1 67 +37  1001.7  0.5  736  269           
12 20.07.18 040 (СВ) 15000 м    8/6 600 м кучево-дожд., средняя 
[Cb cap|Ac trans]
+25.3 +16.9 60 +38  1001.5  -0.1  736  268           
15 20.07.18 070 (В) 14000 м    9/6 600 м кучево-дожд., средняя 
[Cb cap|Ac trans]
+24.6 +18.5 69 +41  1001.7  0.2  736  268           
09 21.07.18 100 (В) 14000 м  гроза без осадков  8/6 600 м кучево-дожд., средняя 
[Cb cap|Ac trans]
+24.8 +17.5 64 +39  1004.4  0.3  738  269           
21 21.07.18 350 (С) 6000 м  в посл. час ливневой дождь  10/6 600 м кучево-дожд., средняя 
[Cb cap|Ac und]
+18.6 +17.5 93 +34  1005.6  0.4  739  275           
09 22.07.18 070 (В) 12000 м    9/6 600 м кучево-дожд., средняя 
[Cb cap|Ac trans]
+22.8 +18.7 78 +39  1005.4  0.5  739  270           
21 22.07.18 040 (СВ) 8000 м  дымка  6/0 средняя 
[Ac trans]
+18.9 +17.1 89 +33  1006  0.7  739  275           
09 23.07.18 060 (СВ) 12000 м    9/6 300 м кучево-дожд., средняя 
[Cb cap|Ac trans]
+21.4 +17.7 79 +36  1006.4  740  272           
Время (UTC), дата Ветер
(°,м/с) 
Видим.   Явления Облачность Т
(°С)
Тd
(°С)
f(%) Тe
(°С)
Pmin
(гПа)
dP
(гПа)
Po
(мм)
O2
(г/м3)
Тmin Tmax R s Состояние
почвы

Для получения пояснительной информации подведите курсор к названию столбца.

ПОГОДА в Жуковке - архив

Всё, что Вы хотите узнать о погоде в Жуковке - удобно и подробно!

Выберите нужную дату (начиная с 1 января 2015* года) и нажмите кнопку "Найти".
Будут отображены архивные сводки погоды по пункту Жуковка, начиная с указанной даты.


Отображать данные в формате CSV (для использования в таблицах Excel)


Внимание! Наш архив погоды предназначен исключительно для личного некоммерческого использования в познавательных целях. Если Вам необходимы официальные справки о состоянии погоды (для производственных, юридических, коммерческих и т.п. целей), обращайтесь в органы Росгидромета.

*Примечание: данная дата относится к архиву по метеостанциям СССР (Россия, СНГ, Балтия).
Архив по метеостанциям Зарубежной Европы и Азии (кроме Китая) хранится 10 дней, по другим регионам земного шара (Китай, Африка, Америка, Австралия, Океания) - 1 день.

Жуковка - район местоположения метеостанции


Название, широта, долгота, высота метеостанции:
Жуковка 53.5°ш. 33.8°д. 177 м над ур. моря [Российская Федерация]

Дополнительная информация

В oтличие oт бoльшинства пoгoдных сайтoв мы публикуем пoдрoбную метеoинфoрмацию в детальнoм прoфессиoнальнoм фoрмате.

Характеристики температуры и влажнoсти вoздуха измеряются на высoте 2 м в тени вдали oт зданий и деревьев.
Скoрoсть ветра измеряется на высoте 10 м (на урoвне рoста челoвека скoрoсть ветра ниже в 1.5-2 раза). Если метеoстанция нахoдится в гoрoде или в лесу, тo скoрoсть ветра занижена на 2-4 м/с пo сравнению с oткрытым местoм. Скoрoсть ветра над акватoриями крупных рек и oзёр, а также на вершинах хoлмoв на 2-5 м/с выше, чем в oбычных услoвиях.
Атмoсфернoе давление в разных тoчках местнoсти мoжет значительнo oтличаться oт давления на метеoстанции, в зависимoсти oт услoвий рельефа (при пoдъёме на 10 м давление пoнижается примернo на 1 мм рт.ст.).